Location: Bazugues
(43.4465°N, 0.3432°E)
Time: 06:30:30
(UTC+00:00)

Cosmos 2056 Rocket - Pass Details

Date: 12 January 2026
Orbit: 739 x 795 km, 74.0° (Epoch: 10 February)

Event Time Altitude Azimuth Distance (km) Brightness Sun altitude
Rises 18:03:14 0° 211° (SSW) 3,197 7.5 -14.0°
Reaches altitude 10° 18:05:39 10° 215° (SW) 2,268 6.7 -14.4°
Maximum altitude 18:10:41 56° 294° (WNW) 886 4.1 -15.3°
Drops below altitude 10° 18:15:42 10° 12° (NNE) 2,260 5.7 -16.1°
Enters shadow 18:16:57 - 15° (NNE) 2,735 6.1 -16.4°
